EW3584 Weather Reports


Display with metric or nautical units.
time (UTC)temp
F
wind
direction
speed
MPH
gust
MPH
rain 1hr
in
rain 24hr
in
rain mn
in
humidity
%
barometer
mb
20200126230136 79 40 3.0 7.0 0.00 0.00 0.00 79 1008.8
20200126224552 79 50 3.0 9.0 0.00 0.00 0.00 79 1008.6
20200126223118 79 51 4.0 8.0 0.00 0.00 0.00 79 1008.5
20200126221555 80 57 4.0 8.0 0.00 0.00 0.00 78 1008.4
20200126220055 80 77 2.0 10.0 0.00 0.00 0.00 76 1008.3
20200126214549 81 38 6.0 10.0 0.00 0.00 0.00 75 1008.2
20200126213153 82 53 4.0 12.0 0.00 0.00 0.00 74 1008.1
20200126211548 83 43 6.0 14.0 0.00 0.00 0.00 71 1008.0
20200126210039 84 355 6.0 10.0 0.00 0.00 0.00 68 1007.9
20200126204544 85 61 7.0 13.0 0.00 0.00 0.00 63 1008.0
20200126201608 87 75 5.0 13.0 0.00 0.00 0.00 60 1008.0
20200126200104 87 15 6.0 11.0 0.00 0.00 0.00 61 1008.0
20200126194546 88 67 6.0 11.0 0.00 0.00 0.00 59 1008.0
20200126193032 89 33 8.0 13.0 0.00 0.00 0.00 59 1008.0
20200126191553 89 112 5.0 12.0 0.00 0.00 0.00 57 1008.1
20200126190046 90 22 5.0 11.0 0.00 0.00 0.00 54 1008.1
20200126184523 90 49 4.0 11.0 0.00 0.00 0.00 54 1008.3
20200126183023 90 110 5.0 10.0 0.00 0.00 0.00 54 1008.3
20200126181556 90 107 4.0 12.0 0.00 0.00 0.00 55 1008.5
20200126180019 90 122 7.0 13.0 0.00 0.00 0.00 57 1008.7
20200126174531 90 27 4.0 11.0 0.00 0.00 0.00 57 1008.7
20200126173047 90 61 5.0 11.0 0.00 0.00 0.00 57 1008.8
20200126171509 90 42 5.0 10.0 0.00 0.00 0.00 58 1008.9
20200126170033 91 55 4.0 11.0 0.00 0.00 0.00 60 1009.0
20200126164505 91 67 6.0 10.0 0.00 0.00 0.00 57 1009.1
20200126161819 91 9 4.0 14.0 0.00 0.00 0.00 56 1009.4
20200126160536 91 5 5.0 10.0 0.00 0.00 0.00 58 1009.6
20200126154707 90 182 3.0 8.0 0.00 0.00 0.00 56 1009.8
20200126153155 90 65 3.0 7.0 0.00 0.00 0.00 55 1010.0
20200126151705 89 307 0.0 5.0 0.00 0.00 0.00 57 1010.3
20200126150132 89 245 3.0 5.0 0.00 0.00 0.00 57 1010.5
20200126144750 87 154 3.0 6.0 0.00 0.00 0.00 60 1010.6
20200126143129 87 67 2.0 4.0 0.00 0.00 0.00 57 1010.9
20200126141557 86 175 2.0 4.0 0.00 0.00 0.00 61 1011.0
20200126140146 85 150 2.0 6.0 0.00 0.00 0.00 64 1011.0
20200126134632 84 83 2.0 6.0 0.00 0.00 0.00 66 1011.1
20200126133102 83 119 2.0 7.0 0.00 0.00 0.00 71 1011.2
20200126131530 82 252 3.0 8.0 0.00 0.00 0.00 72 1011.2
20200126130054 81 216 2.0 6.0 0.00 0.00 0.00 73 1011.3
20200126124517 80 125 1.0 8.0 0.00 0.00 0.00 75 1011.2
20200126123039 79 150 3.0 6.0 0.00 0.00 0.00 77 1011.2
20200126121555 78 154 1.0 7.0 0.00 0.00 0.00 81 1011.4
20200126120016 77 134 2.0 8.0 0.00 0.00 0.00 83 1011.4
20200126114734 75 246 3.0 6.0 0.00 0.00 0.00 86 1011.4
20200126113156 73 236 5.0 7.0 0.00 0.00 0.00 89 1011.4
20200126111655 72 244 3.0 6.0 0.00 0.00 0.00 91 1011.4
20200126110202 71 231 3.0 6.0 0.00 0.00 0.00 89 1011.4
20200126104649 70 233 1.0 4.0 0.00 0.00 0.00 89 1011.4
20200126103121 69 263 0.0 0.0 0.00 0.00 0.00 89 1011.3
20200126101603 68 257 0.0 0.0 0.00 0.00 0.00 89 1011.3
20200126100041 67 263 0.0 0.0 0.00 0.00 0.00 89 1011.1
20200126094541 66 263 0.0 0.0 0.00 0.00 0.00 89 1010.9
20200126093035 66 263 0.0 0.0 0.00 0.00 0.00 89 1010.8
20200126091614 66 263 0.0 0.0 0.00 0.00 0.00 89 1010.7
20200126090049 66 263 0.0 0.0 0.00 0.00 0.00 90 1010.6
20200126084516 65 263 0.0 0.0 0.00 0.00 0.00 90 1010.5
20200126083057 65 263 0.0 0.0 0.00 0.00 0.00 90 1010.1
20200126081542 66 263 0.0 0.0 0.00 0.00 0.00 90 1009.9
20200126080034 66 263 0.0 0.0 0.00 0.00 0.00 90 1009.7
20200126074531 66 263 0.0 0.0 0.00 0.00 0.00 90 1009.6
20200126073013 66 263 0.0 0.0 0.00 0.00 0.00 90 1009.4
20200126071512 66 263 0.0 0.0 0.00 0.00 0.00 90 1009.3
20200126070012 66 263 1.0 2.0 0.00 0.00 0.00 90 1009.3
20200126064510 66 263 0.0 1.0 0.00 0.00 0.00 90 1009.2
20200126063042 66 263 0.0 1.0 0.00 0.00 0.00 90 1009.2
20200126061508 66 263 0.0 0.0 0.00 0.00 0.00 90 1009.4
20200126060014 66 263 0.0 1.0 0.00 0.00 0.00 90 1009.4
20200126054506 66 263 0.0 1.0 0.00 0.00 0.00 90 1009.6
20200126053012 66 263 0.0 2.0 0.00 0.00 0.00 90 1009.5
20200126051833 66 263 0.0 0.0 0.00 0.00 0.00 90 1009.6
20200126050121 67 263 0.0 2.0 0.00 0.00 0.00 90 1009.7
20200126044741 67 263 0.0 1.0 0.00 0.00 0.00 90 1009.9
20200126043154 67 263 0.0 0.0 0.00 0.00 0.00 90 1009.8
20200126041740 67 263 1.0 2.0 0.00 0.00 0.00 90 1010.0
20200126040148 67 263 0.0 2.0 0.00 0.00 0.00 90 1010.1
20200126034734 67 263 0.0 0.0 0.00 0.00 0.00 90 1010.2
20200126033159 67 263 0.0 0.0 0.00 0.00 0.00 90 1010.4
20200126031725 67 263 0.0 0.0 0.00 0.00 0.00 90 1010.2
20200126030215 67 263 1.0 2.0 0.00 0.00 0.00 90 1010.3
20200126024702 68 263 0.0 2.0 0.00 0.00 0.00 91 1010.4
20200126023225 68 263 1.0 3.0 0.00 0.00 0.00 91 1010.4
20200126021635 68 263 0.0 2.0 0.00 0.00 0.00 90 1010.4
20200126020141 69 263 1.0 3.0 0.00 0.00 0.00 91 1010.4
20200126013106 69 317 0.0 0.0 0.00 0.00 0.00 90 1010.2
20200126011603 70 317 0.0 0.0 0.00 0.00 0.00 90 1009.8
20200126010250 70 317 0.0 0.0 0.00 0.00 0.00 89 1009.7
20200126004655 71 317 0.0 0.0 0.00 0.00 0.00 88 1009.5
20200126003255 71 317 0.0 3.0 0.00 0.00 0.00 87 1009.3
20200126001637 73 54 0.0 2.0 0.00 0.00 0.00 85 1009.2
20200126000147 74 54 0.0 1.0 0.00 0.00 0.00 82 1008.9
20200125234826 74 54 1.0 4.0 0.00 0.00 0.00 82 1008.7
20200125233105 75 68 0.0 0.0 0.00 0.00 0.00 80 1008.5
20200125231640 76 68 0.0 0.0 0.00 0.00 0.00 79 1008.4